| time (UTC) | temp C | wind direction | speed KPH | gust KPH | rain 1hr cm | rain 24hr cm | rain mn cm | humidity % | barometer mb |
| 20260505230335 | 24 | 263 | 12.9 | 25.7 | 0.00 | 0.00 | 0.00 | 25 | 1007.6 |
| 20260505225407 | 24 | 257 | 3.2 | 20.9 | 0.00 | 0.00 | 0.00 | 27 | 1007.6 |
| 20260505224334 | 24 | 321 | 6.4 | 19.3 | 0.00 | 0.00 | 0.00 | 27 | 1007.8 |
| 20260505223403 | 25 | 315 | 6.4 | 25.7 | 0.00 | 0.00 | 0.00 | 26 | 1007.9 |
| 20260505222329 | 25 | 262 | 9.7 | 20.9 | 0.00 | 0.00 | 0.00 | 26 | 1008.0 |
| 20260505221401 | 25 | 270 | 9.7 | 24.1 | 0.00 | 0.00 | 0.00 | 26 | 1008.1 |
| 20260505220407 | 25 | 207 | 6.4 | 27.4 | 0.00 | 0.00 | 0.00 | 26 | 1008.3 |
| 20260505215334 | 26 | 256 | 4.8 | 25.7 | 0.00 | 0.00 | 0.00 | 25 | 1008.2 |
| 20260505214342 | 25 | 234 | 9.7 | 19.3 | 0.00 | 0.00 | 0.00 | 26 | 1008.2 |
| 20260505213332 | 25 | 259 | 9.7 | 20.9 | 0.00 | 0.00 | 0.00 | 26 | 1008.3 |
| 20260505212340 | 25 | 280 | 6.4 | 12.9 | 0.00 | 0.00 | 0.00 | 25 | 1008.4 |
| 20260505211329 | 25 | 279 | 12.9 | 24.1 | 0.00 | 0.00 | 0.00 | 26 | 1008.5 |
| 20260505210336 | 25 | 260 | 8.0 | 25.7 | 0.00 | 0.00 | 0.00 | 27 | 1008.7 |
| 20260505205328 | 25 | 221 | 6.4 | 20.9 | 0.00 | 0.00 | 0.00 | 26 | 1008.7 |
| 20260505204334 | 25 | 248 | 9.7 | 27.4 | 0.00 | 0.00 | 0.00 | 27 | 1008.8 |
| 20260505203342 | 25 | 203 | 6.4 | 19.3 | 0.00 | 0.00 | 0.00 | 28 | 1008.8 |
| 20260505202329 | 24 | 215 | 16.1 | 30.6 | 0.00 | 0.00 | 0.00 | 29 | 1008.9 |
| 20260505201336 | 25 | 155 | 8.0 | 19.3 | 0.00 | 0.00 | 0.00 | 29 | 1008.9 |
| 20260505200346 | 25 | 221 | 8.0 | 22.5 | 0.00 | 0.00 | 0.00 | 31 | 1009.0 |
| 20260505195334 | 24 | 246 | 6.4 | 19.3 | 0.00 | 0.00 | 0.00 | 31 | 1009.0 |
| 20260505194342 | 24 | 231 | 6.4 | 22.5 | 0.00 | 0.00 | 0.00 | 31 | 1009.2 |
| 20260505193333 | 24 | 239 | 4.8 | 19.3 | 0.00 | 0.00 | 0.00 | 32 | 1009.2 |
| 20260505192340 | 24 | 242 | 4.8 | 20.9 | 0.00 | 0.00 | 0.00 | 32 | 1009.2 |
| 20260505191346 | 23 | 219 | 3.2 | 14.5 | 0.00 | 0.00 | 0.00 | 34 | 1009.4 |
| 20260505190334 | 23 | 234 | 6.4 | 16.1 | 0.00 | 0.00 | 0.00 | 34 | 1009.5 |
| 20260505185342 | 23 | 275 | 4.8 | 12.9 | 0.00 | 0.00 | 0.00 | 37 | 1009.5 |
| 20260505184333 | 23 | 246 | 8.0 | 17.7 | 0.00 | 0.00 | 0.00 | 38 | 1009.8 |
| 20260505183401 | 23 | 235 | 6.4 | 12.9 | 0.00 | 0.00 | 0.00 | 37 | 1009.6 |
| 20260505182327 | 23 | 240 | 4.8 | 19.3 | 0.00 | 0.00 | 0.00 | 40 | 1009.8 |
| 20260505181335 | 23 | 304 | 6.4 | 16.1 | 0.00 | 0.00 | 0.00 | 38 | 1009.9 |
| 20260505180406 | 22 | 257 | 8.0 | 16.1 | 0.00 | 0.00 | 0.00 | 40 | 1009.8 |
| 20260505175333 | 22 | 280 | 9.7 | 16.1 | 0.00 | 0.00 | 0.00 | 41 | 1009.9 |
| 20260505174341 | 22 | 273 | 4.8 | 17.7 | 0.00 | 0.00 | 0.00 | 42 | 1009.9 |
| 20260505173329 | 22 | 34 | 0.0 | 16.1 | 0.00 | 0.00 | 0.00 | 42 | 1009.9 |
| 20260505172340 | 22 | 238 | 8.0 | 16.1 | 0.00 | 0.00 | 0.00 | 44 | 1009.9 |
| 20260505171330 | 22 | 265 | 6.4 | 14.5 | 0.00 | 0.00 | 0.00 | 43 | 1009.9 |
| 20260505170356 | 21 | 228 | 1.6 | 14.5 | 0.00 | 0.00 | 0.00 | 43 | 1010.0 |
| 20260505165344 | 21 | 269 | 3.2 | 9.7 | 0.00 | 0.00 | 0.00 | 45 | 1009.9 |
| 20260505164336 | 21 | 238 | 4.8 | 14.5 | 0.00 | 0.00 | 0.00 | 46 | 1010.0 |
| 20260505163344 | 20 | 287 | 1.6 | 11.3 | 0.00 | 0.00 | 0.00 | 47 | 1010.0 |
| 20260505162331 | 20 | 279 | 4.8 | 11.3 | 0.00 | 0.00 | 0.00 | 51 | 1010.0 |
| 20260505161359 | 20 | 150 | 4.8 | 9.7 | 0.00 | 0.00 | 0.00 | 53 | 1010.1 |
| 20260505160331 | 20 | 223 | 4.8 | 16.1 | 0.00 | 0.00 | 0.00 | 55 | 1010.2 |
| 20260505153332 | 20 | 281 | 6.4 | 16.1 | 0.00 | 0.00 | 0.00 | 53 | 1010.1 |
| 20260505152344 | 20 | 249 | 9.7 | 20.9 | 0.00 | 0.00 | 0.00 | 53 | 1010.0 |
| 20260505151331 | 20 | 267 | 4.8 | 14.5 | 0.00 | 0.00 | 0.00 | 54 | 1009.9 |
| 20260505150338 | 20 | 273 | 8.0 | 17.7 | 0.00 | 0.00 | 0.00 | 54 | 1009.9 |
| 20260505140350 | 18 | 185 | 0.0 | 1.6 | 0.00 | 0.00 | 0.00 | 55 | 1009.7 |
| 20260505124333 | 18 | 220 | 0.0 | 3.2 | 0.00 | 0.00 | 0.00 | 54 | 1009.1 |
| 20260505123340 | 18 | 182 | 1.6 | 6.4 | 0.00 | 0.00 | 0.00 | 54 | 1008.9 |
| 20260505122327 | 18 | 207 | 1.6 | 6.4 | 0.00 | 0.00 | 0.00 | 53 | 1008.9 |
| 20260505121333 | 18 | 201 | 3.2 | 8.0 | 0.00 | 0.00 | 0.00 | 53 | 1008.8 |
| 20260505120403 | 18 | 226 | 3.2 | 9.7 | 0.00 | 0.00 | 0.00 | 53 | 1008.7 |
| 20260505115327 | 18 | 200 | 3.2 | 8.0 | 0.00 | 0.00 | 0.00 | 52 | 1008.7 |
| 20260505114334 | 19 | 265 | 1.6 | 6.4 | 0.00 | 0.00 | 0.00 | 52 | 1008.7 |
| 20260505113340 | 19 | 247 | 0.0 | 6.4 | 0.00 | 0.00 | 0.00 | 52 | 1008.6 |
| 20260505112332 | 19 | 235 | 0.0 | 8.0 | 0.00 | 0.00 | 0.00 | 51 | 1008.7 |
| 20260505111338 | 19 | 219 | 0.0 | 8.0 | 0.00 | 0.00 | 0.00 | 50 | 1008.4 |
| 20260505110346 | 20 | 262 | 3.2 | 6.4 | 0.00 | 0.00 | 0.00 | 49 | 1008.3 |
| 20260505101342 | 20 | 255 | 1.6 | 11.3 | 0.00 | 0.00 | 0.00 | 47 | 1009.0 |
| 20260505100333 | 20 | 247 | 1.6 | 16.1 | 0.00 | 0.00 | 0.00 | 46 | 1009.2 |
| 20260505095340 | 21 | 261 | 4.8 | 11.3 | 0.00 | 0.00 | 0.00 | 44 | 1009.3 |
| 20260505094327 | 21 | 265 | 0.0 | 11.3 | 0.00 | 0.00 | 0.00 | 43 | 1009.3 |
| 20260505093334 | 21 | 281 | 0.0 | 3.2 | 0.00 | 0.00 | 0.00 | 43 | 1009.4 |
| 20260505092344 | 21 | 245 | 3.2 | 9.7 | 0.00 | 0.00 | 0.00 | 42 | 1009.5 |
| 20260505091332 | 21 | 265 | 0.0 | 6.4 | 0.00 | 0.00 | 0.00 | 41 | 1009.6 |
| 20260505090337 | 21 | 231 | 0.0 | 3.2 | 0.00 | 0.00 | 0.00 | 40 | 1009.6 |
| 20260505085344 | 21 | 214 | 0.0 | 0.0 | 0.00 | 0.00 | 0.00 | 40 | 1009.5 |
| 20260505084334 | 21 | 250 | 0.0 | 3.2 | 0.00 | 0.00 | 0.00 | 39 | 1009.7 |
| 20260505083403 | 21 | 234 | 0.0 | 6.4 | 0.00 | 0.00 | 0.00 | 39 | 1009.9 |
| 20260505082330 | 21 | 246 | 1.6 | 8.0 | 0.00 | 0.00 | 0.00 | 39 | 1010.0 |
| 20260505081336 | 21 | 189 | 0.0 | 6.4 | 0.00 | 0.00 | 0.00 | 38 | 1010.0 |
| 20260505080327 | 21 | 207 | 0.0 | 6.4 | 0.00 | 0.00 | 0.00 | 38 | 1009.7 |
| 20260505075334 | 21 | 205 | 3.2 | 8.0 | 0.00 | 0.00 | 0.00 | 38 | 1010.1 |
| 20260505074341 | 21 | 211 | 3.2 | 9.7 | 0.00 | 0.00 | 0.00 | 37 | 1010.0 |
| 20260505073328 | 22 | 179 | 4.8 | 11.3 | 0.00 | 0.00 | 0.00 | 37 | 1009.9 |
| 20260505072339 | 22 | 216 | 6.4 | 12.9 | 0.00 | 0.00 | 0.00 | 36 | 1009.9 |
| 20260505071345 | 22 | 171 | 6.4 | 9.7 | 0.00 | 0.00 | 0.00 | 35 | 1010.1 |
| 20260505070352 | 22 | 147 | 6.4 | 11.3 | 0.00 | 0.00 | 0.00 | 36 | 1009.9 |
| 20260505065358 | 22 | 202 | 4.8 | 11.3 | 0.00 | 0.00 | 0.00 | 39 | 1010.1 |
| 20260505064343 | 22 | 194 | 0.0 | 4.8 | 0.00 | 0.00 | 0.00 | 42 | 1009.8 |
| 20260505063335 | 22 | 244 | 1.6 | 9.7 | 0.00 | 0.00 | 0.00 | 41 | 1009.7 |
| 20260505062342 | 22 | 271 | 1.6 | 6.4 | 0.00 | 0.00 | 0.00 | 41 | 1009.6 |
| 20260505061329 | 22 | 270 | 3.2 | 9.7 | 0.00 | 0.00 | 0.00 | 41 | 1009.5 |
| 20260505060335 | 22 | 257 | 1.6 | 9.7 | 0.00 | 0.00 | 0.00 | 41 | 1009.4 |
| 20260505055406 | 22 | 264 | 1.6 | 6.4 | 0.00 | 0.00 | 0.00 | 40 | 1009.2 |
| 20260505054353 | 22 | 247 | 0.0 | 6.4 | 0.00 | 0.00 | 0.00 | 41 | 1009.2 |
| 20260505053338 | 22 | 217 | 0.0 | 6.4 | 0.00 | 0.00 | 0.00 | 41 | 1009.5 |
| 20260505052405 | 22 | 259 | 1.6 | 12.9 | 0.00 | 0.00 | 0.00 | 41 | 1009.6 |
| 20260505051332 | 22 | 271 | 4.8 | 11.3 | 0.00 | 0.00 | 0.00 | 41 | 1009.8 |
| 20260505050343 | 22 | 271 | 3.2 | 9.7 | 0.00 | 0.00 | 0.00 | 40 | 1010.1 |
| 20260505041347 | 23 | 234 | 3.2 | 9.7 | 0.00 | 0.00 | 0.00 | 40 | 1009.7 |
| 20260505040328 | 23 | 248 | 3.2 | 14.5 | 0.00 | 0.00 | 0.00 | 41 | 1009.8 |
| 20260505035329 | 23 | 229 | 3.2 | 14.5 | 0.00 | 0.00 | 0.00 | 41 | 1009.8 |
| 20260505034328 | 23 | 243 | 3.2 | 9.7 | 0.00 | 0.00 | 0.00 | 41 | 1009.6 |
| 20260505033325 | 23 | 215 | 4.8 | 14.5 | 0.00 | 0.00 | 0.00 | 42 | 1009.1 |
| 20260505032327 | 23 | 239 | 4.8 | 14.5 | 0.00 | 0.00 | 0.00 | 42 | 1009.0 |
| 20260505031327 | 23 | 221 | 3.2 | 12.9 | 0.00 | 0.00 | 0.00 | 43 | 1008.9 |
| 20260505030327 | 23 | 251 | 6.4 | 17.7 | 0.00 | 0.00 | 0.00 | 42 | 1008.7 |
| 20260505025345 | 23 | 261 | 1.6 | 9.7 | 0.00 | 0.00 | 0.00 | 42 | 1008.7 |
| 20260505024344 | 23 | 238 | 6.4 | 14.5 | 0.00 | 0.00 | 0.00 | 42 | 1008.7 |
| 20260505023327 | 23 | 266 | 6.4 | 14.5 | 0.00 | 0.00 | 0.00 | 42 | 1008.8 |
| 20260505022329 | 23 | 259 | 9.7 | 16.1 | 0.00 | 0.00 | 0.00 | 41 | 1008.8 |
| 20260505021328 | 23 | 294 | 11.3 | 14.5 | 0.00 | 0.00 | 0.00 | 41 | 1008.7 |
| 20260505020328 | 23 | 279 | 4.8 | 14.5 | 0.00 | 0.00 | 0.00 | 40 | 1008.7 |
| 20260505015347 | 23 | 219 | 1.6 | 14.5 | 0.00 | 0.00 | 0.00 | 40 | 1008.6 |
| 20260505014352 | 23 | 271 | 8.0 | 12.9 | 0.00 | 0.00 | 0.00 | 40 | 1008.6 |
| 20260505013328 | 24 | 238 | 6.4 | 12.9 | 0.00 | 0.00 | 0.00 | 39 | 1008.6 |
| 20260505012347 | 24 | 268 | 1.6 | 14.5 | 0.00 | 0.00 | 0.00 | 38 | 1008.5 |
| 20260505011327 | 24 | 313 | 6.4 | 12.9 | 0.00 | 0.00 | 0.00 | 37 | 1008.5 |
| 20260505010327 | 24 | 261 | 0.0 | 11.3 | 0.00 | 0.00 | 0.00 | 36 | 1008.5 |
| 20260505005329 | 25 | 279 | 1.6 | 12.9 | 0.00 | 0.00 | 0.00 | 36 | 1008.5 |
| 20260505004328 | 25 | 267 | 4.8 | 11.3 | 0.00 | 0.00 | 0.00 | 35 | 1008.7 |
| 20260505003327 | 25 | 258 | 1.6 | 12.9 | 0.00 | 0.00 | 0.00 | 36 | 1008.7 |
| 20260505002346 | 25 | 306 | 3.2 | 12.9 | 0.00 | 0.00 | 0.00 | 36 | 1008.8 |
| 20260505001328 | 25 | 261 | 4.8 | 12.9 | 0.00 | 0.00 | 0.00 | 37 | 1008.8 |
| 20260505000351 | 25 | 277 | 4.8 | 12.9 | 0.00 | 0.00 | 0.00 | 37 | 1009.0 |
| 20260504235348 | 25 | 350 | 3.2 | 8.0 | 0.00 | 0.00 | 0.00 | 36 | 1008.9 |
| 20260504234345 | 25 | 256 | 0.0 | 6.4 | 0.00 | 0.00 | 0.00 | 37 | 1009.0 |
| 20260504233404 | 25 | 244 | 4.8 | 11.3 | 0.00 | 0.00 | 0.00 | 36 | 1009.0 |
| 20260504232339 | 25 | 265 | 3.2 | 11.3 | 0.00 | 0.00 | 0.00 | 37 | 1009.1 |
| 20260504231340 | 25 | 310 | 0.0 | 9.7 | 0.00 | 0.00 | 0.00 | 37 | 1009.1 |